sat.trackr.live / text

‹ back to catalog

STARLINK-31379

NORAD 58984 · 2024-031V

PAYLOAD ACTIVE UNKNOWN

§ Identity

Operator
Country
US
Launch date
2024-02-15
Launch site
AFWTR
Launch vehicle
Mass (kg)
RCS (m²)

Purposes: comms

External: N2YO · Heavens-Above · Gunter

§ Orbital elements

Epoch: 2026-05-24T16:19:06.606048Z

Period
94.11 min
Inclination
53.1608°
Eccentricity
0.0001244
Mean motion
15.30188620 rev/d
Perigee alt
474.4 km
Apogee alt
476.1 km
Semi-major
6,853.4 km
B*
-5.5530e-6
RAAN
304.0070°
Arg perigee
89.9928°
Mean anomaly
270.1215°
Rev number
12,814

§ Raw data

STARLINK-313791 58984U 24031V   26144.67993757 -.00000524  00000+0 -55530-5 0  99992 58984  53.1608 304.0070 0001244  89.9928 270.1215 15.30188620128147

JSON: /api/v1/satellites/58984 · /tle

For live sub-satellite position, see the globe view (requires WebGL).

§ Visibility from observer

Set your observer location to see the next 7 days of passes ≥ 10°. The values pass through the URL so the page stays shareable.

No JS? Fill the form by hand. The geolocation button needs JavaScript.